Regional Weather Roundup
Issued by NWS

Home | Current Version | Previous Version | Text Only | Print | Product List | Glossary Off
Versions: 1 2 3 4 5 6 7 8 9 10 11 12 13 14 15 16 17 18 19 20 21 22 23 24 25 26 27 28 29 30 31 32 33 34 35 36 37 38 39 40 41 42 43 44 45 46 47 48 49 50

613
ASUS43 KDMX 291301
RWRIA

WEATHER ROUNDUP FOR IOWA
NATIONAL WEATHER SERVICE DES MOINES IA
800 AM CDT MON MAY 29 2017

NOTE: "FAIR" INDICATES FEW OR NO CLOUDS BELOW 12,000 FEET WITH NO
SIGNIFICANT WEATHER AND/OR OBSTRUCTIONS TO VISIBILITY.

* - THESE STATIONS ARE NOT NWS STATIONS...THUS NOT UNDER NWS
QUALITY CONTROL.  THEY ALSO DO NOT REPORT WEATHER SUCH
AS PRECIPITATION OR FOG.

IAZ001>003-012>014-020>022-031>034-043>046-291400-
   NORTHWEST IOWA

CITY           SKY/WX    TMP DP  RH WIND       PRES   REMARKS
CARROLL *      SUNNY     63  46  55 NW10      29.94S
CHEROKEE *     SUNNY     57  48  70 W8        29.95S
DENISON *      SUNNY     57  48  72 SW5       29.97S
LE MARS *      SUNNY     57  46  67 NW10      29.98R
ORANGE CITY *  SUNNY     55  48  76 NW13      29.95R
SHELDON *      SUNNY     55  45  67 NW14      29.92R
SIOUX CITY     SUNNY     58  49  72 W9        29.98R
SPENCER        SUNNY     56  46  69 NW13G21   29.92R
STORM LAKE *   SUNNY     55  45  67 W10       29.94S
$$

IAZ055>058-069>071-079>083-090>094-291400-
   SOUTHWEST IOWA

CITY           SKY/WX    TMP DP  RH WIND       PRES   REMARKS
ATLANTIC *     MOSUNNY   61  48  63 N5        29.95F
AUDUBON *      SUNNY     57  50  77 CALM      29.96S
CLARINDA *     MOSUNNY   64  48  55 N9        29.98R
COUNCIL BLFS * SUNNY     61  50  67 W3        29.97S
CRESTON *      MOSUNNY   59  48  67 NW5       29.96S
HARLAN  *      SUNNY     59  50  72 CALM      29.99S
LAMONI         CLOUDY    62  48  60 NW7       29.93S
RED OAK *      MOSUNNY   63  48  59 NW10      29.96R
SHENANDOAH *   SUNNY     63  48  59 CALM      29.98R
$$

IAZ047>049-059>061-072>074-084-291400-
   CENTRAL IOWA

CITY           SKY/WX    TMP DP  RH WIND       PRES   REMARKS
AMES           MOSUNNY   61  48  62 NW9       29.91S
ANKENY *       PTSUNNY   59  48  67 NW8       29.93S
BOONE *        SUNNY     61 N/A N/A W9        29.91S
CHARITON *     MOSUNNY   59  52  77 NW6       29.93R
DES MOINES     PTSUNNY   62  48  60 NW7       29.92S
GRINNELL*      MOSUNNY   59  48  67 W7        29.91S
KNOXVILLE *    SUNNY     61  50  67 NW8       29.90S
MARSHALLTOWN   MOSUNNY   59  49  69 W8        29.89S
NEWTON *       SUNNY     61  46  59 NW10      29.90S
PELLA *        MOSUNNY   61  49  64 NW6       29.91F
PERRY *          N/A     58  51  76 W8        29.93S
$$

IAZ004>006-015-016-023>025-035-036-291400-
   NORTH CENTRAL IOWA

CITY           SKY/WX    TMP DP  RH WIND       PRES   REMARKS
ALGONA *       SUNNY     59  46  63 W13       29.90F
CLARION *      SUNNY     59  46  63 W15       29.90F
ESTHERVILLE    SUNNY     55  47  74 NW17      29.90R
FORT DODGE *   SUNNY     57  46  67 W8        29.93S
MASON CITY     SUNNY     57  46  66 W12G21    29.89S
FOREST CITY *    N/A     59  37  44 NW16      29.88F
WEBSTER CITY * MOSUNNY   61  46  59 W14       29.90S
IOWA FALLS *     N/A     60  47  61 W15       29.91S
$$

IAZ007>011-017>019-026>030-037>042-050>054-066-291400-
   NORTHEAST IOWA

CITY           SKY/WX    TMP DP  RH WIND       PRES   REMARKS
CEDAR RAPIDS   MOSUNNY   60  50  69 NW12      29.87S
CHARLES CITY * SUNNY     57  45  62 W18       29.87S
CLINTON *      LGT RAIN  58  52  80 NW12      29.86R
DECORAH *      SUNNY     55  46  71 W10       29.83S
DUBUQUE        SUNNY     58  47  66 W14       29.84S
MONTICELLO *   PTSUNNY   61  48  63 W12       29.86R
OELWEIN *      SUNNY     59  46  63 W15G22    29.87S
WATERLOO       SUNNY     60  45  57 W15       29.87S
$$

IAZ064-065-067-068-078-291400-
   EAST CENTRAL IOWA

CITY           SKY/WX    TMP DP  RH WIND       PRES   REMARKS
DAVENPORT      LGT RAIN  60  49  66 W13       29.87R
IOWA CITY      CLOUDY    61  49  64 NW7       29.89S
MT. PLEASANT * PTSUNNY   62  47  58 W7        29.91R
MUSCATINE *    CLOUDY    61  50  67 NW8       29.88S
QUAD CITIES    CLOUDY    63  47  55 NW13      29.86R
$$

IAZ062-063-075>077-085>089-095>099-291400-
   SOUTHEAST IOWA

CITY           SKY/WX    TMP DP  RH WIND       PRES   REMARKS
BURLINGTON     MOSUNNY   64  51  62 W9        29.88R
FAIRFIELD *    CLOUDY    59  50  72 CALM      29.89F
FORT MADISON * MOSUNNY   64  50  59 W10       29.90R
KEOKUK *       CLOUDY    61  50  67 MISG      29.91R
OSKALOOSA *      N/A     61  50  66 NW12      29.90F
OTTUMWA        MOSUNNY   58  52  80 NW6       29.90F
WASHINGTON *   CLOUDY    61  50  67 NW8       29.92R
$$

ABBREVIATIONS USED IN REMARKS
   TC - TEMPERATURES IN CELSIUS
  WCI - WIND CHILL INDEX
   HX - HEAT INDEX
  VSB - VISIBILITY
$$





USA.gov is the U.S. government's official web portal to all federal, state and local government web resources and services.